Year,Month,Day,Hour,Minute,Value (Times are PST for temperature in C)
2011,04,19,00,00,2.60
2011,04,19,00,01,2.60
2011,04,19,00,02,2.60
2011,04,19,00,03,2.60
2011,04,19,00,04,2.60
2011,04,19,00,05,2.60
2011,04,19,00,06,2.60
2011,04,19,00,07,2.60
2011,04,19,00,08,2.60
2011,04,19,00,09,2.60
2011,04,19,00,10,2.60
2011,04,19,00,11,2.60
2011,04,19,00,12,2.60
2011,04,19,00,13,2.60
2011,04,19,00,14,2.60
2011,04,19,00,15,2.60
2011,04,19,00,16,2.60
2011,04,19,00,17,2.60
2011,04,19,00,18,2.60
2011,04,19,00,19,2.60
2011,04,19,00,20,2.60
2011,04,19,00,21,2.70
2011,04,19,00,22,2.80
2011,04,19,00,23,2.80
2011,04,19,00,24,2.80
2011,04,19,00,25,2.90
2011,04,19,00,26,2.90
2011,04,19,00,27,2.90
2011,04,19,00,28,2.90
2011,04,19,00,29,2.90
2011,04,19,00,30,2.90
2011,04,19,00,31,3.00
2011,04,19,00,32,3.10
2011,04,19,00,33,3.10
2011,04,19,00,34,3.10
2011,04,19,00,35,3.10
2011,04,19,00,36,3.10
2011,04,19,00,37,3.10
2011,04,19,00,38,3.10
2011,04,19,00,39,3.10
2011,04,19,00,40,3.10
2011,04,19,00,41,3.10
2011,04,19,00,42,3.00
2011,04,19,00,43,2.90
2011,04,19,00,44,2.90
2011,04,19,00,45,2.90
2011,04,19,00,46,2.90
2011,04,19,00,47,2.90
2011,04,19,00,48,2.90
2011,04,19,00,49,2.90
2011,04,19,00,50,2.90
2011,04,19,00,51,2.90
2011,04,19,00,52,2.90
2011,04,19,00,53,2.90
2011,04,19,00,54,2.90
2011,04,19,00,55,2.90
2011,04,19,00,56,2.90
2011,04,19,00,57,2.90
2011,04,19,00,58,2.80
2011,04,19,00,59,2.80
2011,04,19,01,00,2.80
2011,04,19,01,01,2.80
2011,04,19,01,02,2.80
2011,04,19,01,03,2.80
2011,04,19,01,04,2.80
2011,04,19,01,05,2.80
2011,04,19,01,06,2.80
2011,04,19,01,07,2.70
2011,04,19,01,08,2.70
2011,04,19,01,09,2.70
2011,04,19,01,10,2.70
2011,04,19,01,11,2.70
2011,04,19,01,12,2.70
2011,04,19,01,13,2.70
2011,04,19,01,14,2.80
2011,04,19,01,15,2.90
2011,04,19,01,16,3.10
2011,04,19,01,17,3.10
2011,04,19,01,18,3.10
2011,04,19,01,19,3.10
2011,04,19,01,20,3.10
2011,04,19,01,21,3.10
2011,04,19,01,22,3.10
2011,04,19,01,23,3.10
2011,04,19,01,24,3.00
2011,04,19,01,25,2.90
2011,04,19,01,26,2.90
2011,04,19,01,27,2.90
2011,04,19,01,28,2.90
2011,04,19,01,29,2.90
2011,04,19,01,30,2.90
2011,04,19,01,31,2.90
2011,04,19,01,32,2.90
2011,04,19,01,33,2.80
2011,04,19,01,34,2.80
2011,04,19,01,35,2.80
2011,04,19,01,36,2.80
2011,04,19,01,37,2.70
2011,04,19,01,38,2.70
2011,04,19,01,39,2.70
2011,04,19,01,40,2.70
2011,04,19,01,41,2.70
2011,04,19,01,42,2.70
2011,04,19,01,43,2.70
2011,04,19,01,44,2.60
2011,04,19,01,45,2.60
2011,04,19,01,46,2.60
2011,04,19,01,47,2.50
2011,04,19,01,48,2.60
2011,04,19,01,49,2.60
2011,04,19,01,50,2.60
2011,04,19,01,51,2.60
2011,04,19,01,52,2.60
2011,04,19,01,53,2.60
2011,04,19,01,54,2.60
2011,04,19,01,55,2.60
2011,04,19,01,56,2.60
2011,04,19,01,57,2.60
2011,04,19,01,58,2.60
2011,04,19,01,59,2.60
2011,04,19,02,00,2.60
2011,04,19,02,01,2.60
2011,04,19,02,02,2.60
2011,04,19,02,03,2.60
2011,04,19,02,04,2.50
2011,04,19,02,05,2.50
2011,04,19,02,06,2.50
2011,04,19,02,07,2.50
2011,04,19,02,08,2.50
2011,04,19,02,09,2.50
2011,04,19,02,10,2.40
2011,04,19,02,11,2.40
2011,04,19,02,12,2.40
2011,04,19,02,13,2.40
2011,04,19,02,14,2.40
2011,04,19,02,15,2.30
2011,04,19,02,16,2.30
2011,04,19,02,17,2.30
2011,04,19,02,18,2.30
2011,04,19,02,19,2.30
2011,04,19,02,20,2.30
2011,04,19,02,21,2.30
2011,04,19,02,22,2.30
2011,04,19,02,23,2.30
2011,04,19,02,24,2.30
2011,04,19,02,25,2.30
2011,04,19,02,26,2.20
2011,04,19,02,27,2.20
2011,04,19,02,28,2.20
2011,04,19,02,29,2.20
2011,04,19,02,30,2.20
2011,04,19,02,31,2.20
2011,04,19,02,32,2.20
2011,04,19,02,33,2.20
2011,04,19,02,34,2.20
2011,04,19,02,35,2.20
2011,04,19,02,36,2.20
2011,04,19,02,37,2.20
2011,04,19,02,38,2.20
2011,04,19,02,39,2.20
2011,04,19,02,40,2.20
2011,04,19,02,41,2.20
2011,04,19,02,42,2.20
2011,04,19,02,43,2.20
2011,04,19,02,44,2.20
2011,04,19,02,45,2.20
2011,04,19,02,46,2.20
2011,04,19,02,47,2.20
2011,04,19,02,48,2.20
2011,04,19,02,49,2.20
2011,04,19,02,50,2.20
2011,04,19,02,51,2.20
2011,04,19,02,52,2.20
2011,04,19,02,53,2.20
2011,04,19,02,54,2.20
2011,04,19,02,55,2.20
2011,04,19,02,56,2.20
2011,04,19,02,57,2.20
2011,04,19,02,58,2.20
2011,04,19,02,59,2.20
2011,04,19,03,00,2.20
2011,04,19,03,01,2.20
2011,04,19,03,02,2.20
2011,04,19,03,03,2.20
2011,04,19,03,04,2.10
2011,04,19,03,05,2.10
2011,04,19,03,06,2.10
2011,04,19,03,07,2.10
2011,04,19,03,08,2.00
2011,04,19,03,09,2.00
2011,04,19,03,10,2.00
2011,04,19,03,11,1.90
2011,04,19,03,12,1.90
2011,04,19,03,13,1.90
2011,04,19,03,14,1.90
2011,04,19,03,15,1.90
2011,04,19,03,16,1.90
2011,04,19,03,17,1.80
2011,04,19,03,18,1.80
2011,04,19,03,19,1.80
2011,04,19,03,20,1.80
2011,04,19,03,21,1.80
2011,04,19,03,22,1.80
2011,04,19,03,23,1.80
2011,04,19,03,24,1.70
2011,04,19,03,25,1.70
2011,04,19,03,26,1.70
2011,04,19,03,27,1.70
2011,04,19,03,28,1.60
2011,04,19,03,29,1.60
2011,04,19,03,30,1.60
2011,04,19,03,31,1.60
2011,04,19,03,32,1.60
2011,04,19,03,33,1.60
2011,04,19,03,34,1.60
2011,04,19,03,35,1.60
2011,04,19,03,36,1.60
2011,04,19,03,37,1.60
2011,04,19,03,38,1.60
2011,04,19,03,39,1.60
2011,04,19,03,40,1.60
2011,04,19,03,41,1.60
2011,04,19,03,42,1.60
2011,04,19,03,43,1.60
2011,04,19,03,44,1.60
2011,04,19,03,45,1.60
2011,04,19,03,46,1.60
2011,04,19,03,47,1.60
2011,04,19,03,48,1.60
2011,04,19,03,49,1.60
2011,04,19,03,50,1.60
2011,04,19,03,51,1.60
2011,04,19,03,52,1.60
2011,04,19,03,53,1.60
2011,04,19,03,54,1.60
2011,04,19,03,55,1.60
2011,04,19,03,56,1.60
2011,04,19,03,57,1.60
2011,04,19,03,58,1.60
2011,04,19,03,59,1.60
2011,04,19,04,00,1.60
2011,04,19,04,01,1.60
2011,04,19,04,02,1.60
2011,04,19,04,03,1.60
2011,04,19,04,04,1.60
2011,04,19,04,05,1.50
2011,04,19,04,06,1.50
2011,04,19,04,07,1.50
2011,04,19,04,08,1.50
2011,04,19,04,09,1.50
2011,04,19,04,10,1.50
2011,04,19,04,11,1.50
2011,04,19,04,12,1.40
2011,04,19,04,13,1.40
2011,04,19,04,14,1.50
2011,04,19,04,15,1.50
2011,04,19,04,16,1.50
2011,04,19,04,17,1.50
2011,04,19,04,18,1.50
2011,04,19,04,19,1.50
2011,04,19,04,20,1.50
2011,04,19,04,21,1.50
2011,04,19,04,22,1.50
2011,04,19,04,23,1.50
2011,04,19,04,24,1.50
2011,04,19,04,25,1.50
2011,04,19,04,26,1.50
2011,04,19,04,27,1.50
2011,04,19,04,28,1.50
2011,04,19,04,29,1.50
2011,04,19,04,30,1.50
2011,04,19,04,31,1.50
2011,04,19,04,32,1.50
2011,04,19,04,33,1.50
2011,04,19,04,34,1.40
2011,04,19,04,35,1.40
2011,04,19,04,36,1.40
2011,04,19,04,37,1.40
2011,04,19,04,38,1.40
2011,04,19,04,39,1.30
2011,04,19,04,40,1.30
2011,04,19,04,41,1.30
2011,04,19,04,42,1.30
2011,04,19,04,43,1.30
2011,04,19,04,44,1.30
2011,04,19,04,45,1.30
2011,04,19,04,46,1.30
2011,04,19,04,47,1.30
2011,04,19,04,48,1.30
2011,04,19,04,49,1.30
2011,04,19,04,50,1.30
2011,04,19,04,51,1.30
2011,04,19,04,52,1.30
2011,04,19,04,53,1.30
2011,04,19,04,54,1.30
2011,04,19,04,55,1.30
2011,04,19,04,56,1.30
2011,04,19,04,57,1.30
2011,04,19,04,58,1.20
2011,04,19,04,59,1.20
2011,04,19,05,00,1.20
2011,04,19,05,01,1.20
2011,04,19,05,02,1.20
2011,04,19,05,03,1.20
2011,04,19,05,04,1.20
2011,04,19,05,05,1.10
2011,04,19,05,06,1.10
2011,04,19,05,07,1.10
2011,04,19,05,08,1.10
2011,04,19,05,09,1.00
2011,04,19,05,10,1.00
2011,04,19,05,11,1.00
2011,04,19,05,12,1.00
2011,04,19,05,13,1.00
2011,04,19,05,14,0.90
2011,04,19,05,15,0.90
2011,04,19,05,16,0.90
2011,04,19,05,17,0.90
2011,04,19,05,18,0.90
2011,04,19,05,19,0.90
2011,04,19,05,20,0.80
2011,04,19,05,21,0.80
2011,04,19,05,22,0.80
2011,04,19,05,23,0.80
2011,04,19,05,24,0.80
2011,04,19,05,25,0.80
2011,04,19,05,26,0.80
2011,04,19,05,27,0.80
2011,04,19,05,28,0.80
2011,04,19,05,29,0.80
2011,04,19,05,30,0.80
2011,04,19,05,31,0.80
2011,04,19,05,32,0.80
2011,04,19,05,33,0.80
2011,04,19,05,34,0.80
2011,04,19,05,35,0.80
2011,04,19,05,36,0.80
2011,04,19,05,37,0.80
2011,04,19,05,38,0.80
2011,04,19,05,39,0.80
2011,04,19,05,40,0.80
2011,04,19,05,41,0.80
2011,04,19,05,42,0.80
2011,04,19,05,43,0.80
2011,04,19,05,44,0.70
2011,04,19,05,45,0.70
2011,04,19,05,46,0.70
2011,04,19,05,47,0.70
2011,04,19,05,48,0.70
2011,04,19,05,49,0.70
2011,04,19,05,50,0.70
2011,04,19,05,51,0.60
2011,04,19,05,52,0.60
2011,04,19,05,53,0.60
2011,04,19,05,54,0.60
2011,04,19,05,55,0.60
2011,04,19,05,56,0.60
2011,04,19,05,57,0.50
2011,04,19,05,58,0.50
2011,04,19,05,59,0.50
2011,04,19,06,00,0.50
2011,04,19,06,01,0.50
2011,04,19,06,02,0.50
2011,04,19,06,03,0.40
2011,04,19,06,04,0.40
2011,04,19,06,05,0.40
2011,04,19,06,06,0.40
2011,04,19,06,07,0.40
2011,04,19,06,08,0.40
2011,04,19,06,09,0.40
2011,04,19,06,10,0.40
2011,04,19,06,11,0.40
2011,04,19,06,12,0.40
2011,04,19,06,13,0.30
2011,04,19,06,14,0.30
2011,04,19,06,15,0.30
2011,04,19,06,16,0.30
2011,04,19,06,17,0.30
2011,04,19,06,18,0.30
2011,04,19,06,19,0.20
2011,04,19,06,20,0.20
2011,04,19,06,21,0.20
2011,04,19,06,22,0.20
2011,04,19,06,23,0.20
2011,04,19,06,24,0.20
2011,04,19,06,25,0.20
2011,04,19,06,26,0.20
2011,04,19,06,27,0.20
2011,04,19,06,28,0.10
2011,04,19,06,29,0.10
2011,04,19,06,30,0.10
2011,04,19,06,31,0.10
2011,04,19,06,32,0.10
2011,04,19,06,33,0.10
2011,04,19,06,34,0.10
2011,04,19,06,35,0.10
2011,04,19,06,36,0.10
2011,04,19,06,37,0.10
2011,04,19,06,38,0.10
2011,04,19,06,39,0.10
2011,04,19,06,40,0.10
2011,04,19,06,41,0.10
2011,04,19,06,42,0.10
2011,04,19,06,43,0.10
2011,04,19,06,44,0.10
2011,04,19,06,45,0.10
2011,04,19,06,46,0.10
2011,04,19,06,47,0.10
2011,04,19,06,48,0.10
2011,04,19,06,49,0.10
2011,04,19,06,50,0.10
2011,04,19,06,51,0.10
2011,04,19,06,52,0.10
2011,04,19,06,53,0.10
2011,04,19,06,54,0.20
2011,04,19,06,55,0.20
2011,04,19,06,56,0.20
2011,04,19,06,57,0.20
2011,04,19,06,58,0.20
2011,04,19,06,59,0.20
2011,04,19,07,00,0.20
2011,04,19,07,01,0.20
2011,04,19,07,02,0.30
2011,04,19,07,03,0.30
2011,04,19,07,04,0.30
2011,04,19,07,05,0.30
2011,04,19,07,06,0.30
2011,04,19,07,07,0.30
2011,04,19,07,08,0.30
2011,04,19,07,09,0.30
2011,04,19,07,10,0.30
2011,04,19,07,11,0.30
2011,04,19,07,12,0.30
2011,04,19,07,13,0.30
2011,04,19,07,14,0.30
2011,04,19,07,15,0.30
2011,04,19,07,16,0.30
2011,04,19,07,17,0.30
2011,04,19,07,18,0.30
2011,04,19,07,19,0.30
2011,04,19,07,20,0.30
2011,04,19,07,21,0.30
2011,04,19,07,22,0.30
2011,04,19,07,23,0.30
2011,04,19,07,24,0.30
2011,04,19,07,25,0.30
2011,04,19,07,26,0.30
2011,04,19,07,27,0.30
2011,04,19,07,28,0.30
2011,04,19,07,29,0.30
2011,04,19,07,30,0.40
2011,04,19,07,31,0.40
2011,04,19,07,32,0.40
2011,04,19,07,33,0.40
2011,04,19,07,34,0.40
2011,04,19,07,35,0.40
2011,04,19,07,36,0.40
2011,04,19,07,37,0.40
2011,04,19,07,38,0.50
2011,04,19,07,39,0.50
2011,04,19,07,40,0.50
2011,04,19,07,41,0.60
2011,04,19,07,42,0.60
2011,04,19,07,43,0.60
2011,04,19,07,44,0.70
2011,04,19,07,45,0.70
2011,04,19,07,46,0.70
2011,04,19,07,47,0.80
2011,04,19,07,48,0.80
2011,04,19,07,49,0.90
2011,04,19,07,50,0.90
2011,04,19,07,51,1.00
2011,04,19,07,52,1.00
2011,04,19,07,53,1.10
2011,04,19,07,54,1.20
2011,04,19,07,55,1.30
2011,04,19,07,56,1.30
2011,04,19,07,57,1.40
2011,04,19,07,58,1.50
2011,04,19,07,59,1.60
2011,04,19,08,00,1.60
2011,04,19,08,01,1.70
2011,04,19,08,02,1.70
2011,04,19,08,03,1.80
2011,04,19,08,04,1.80
2011,04,19,08,05,1.80
2011,04,19,08,06,1.80
2011,04,19,08,07,1.80
2011,04,19,08,08,1.90
2011,04,19,08,09,2.00
2011,04,19,08,10,2.00
2011,04,19,08,11,2.10
2011,04,19,08,12,2.10
2011,04,19,08,13,2.20
2011,04,19,08,14,2.20
2011,04,19,08,15,2.30
2011,04,19,08,16,2.40
2011,04,19,08,17,2.40
2011,04,19,08,18,2.50
2011,04,19,08,19,2.50
2011,04,19,08,20,2.60
2011,04,19,08,21,2.70
2011,04,19,08,22,2.80
2011,04,19,08,23,2.80
2011,04,19,08,24,2.90
2011,04,19,08,25,2.90
2011,04,19,08,26,3.00
2011,04,19,08,27,3.10
2011,04,19,08,28,3.20
2011,04,19,08,29,3.30
2011,04,19,08,30,3.40
2011,04,19,08,31,3.50
2011,04,19,08,32,3.60
2011,04,19,08,33,3.80
2011,04,19,08,34,3.90
2011,04,19,08,35,4.00
2011,04,19,08,36,4.10
2011,04,19,08,37,4.10
2011,04,19,08,38,4.20
2011,04,19,08,39,4.30
2011,04,19,08,40,4.40
2011,04,19,08,41,4.50
2011,04,19,08,42,4.60
2011,04,19,08,43,4.60
2011,04,19,08,44,4.70
2011,04,19,08,45,4.80
2011,04,19,08,46,4.90
2011,04,19,08,47,4.90
2011,04,19,08,48,5.00
2011,04,19,08,49,5.10
2011,04,19,08,50,5.10
2011,04,19,08,51,5.20
2011,04,19,08,52,5.30
2011,04,19,08,53,5.40
2011,04,19,08,54,5.50
2011,04,19,08,55,5.50
2011,04,19,08,56,5.60
2011,04,19,08,57,5.70
2011,04,19,08,58,5.70
2011,04,19,08,59,5.80
2011,04,19,09,00,5.80
2011,04,19,09,01,5.90
2011,04,19,09,02,5.90
2011,04,19,09,03,6.00
2011,04,19,09,04,6.10
2011,04,19,09,05,6.20
2011,04,19,09,06,6.30
2011,04,19,09,07,6.30
2011,04,19,09,08,6.30
2011,04,19,09,09,6.30
2011,04,19,09,10,6.20
2011,04,19,09,11,6.20
2011,04,19,09,12,6.20
2011,04,19,09,13,6.20
2011,04,19,09,14,6.20
2011,04,19,09,15,6.20
2011,04,19,09,16,6.10
2011,04,19,09,17,6.10
2011,04,19,09,18,6.00
2011,04,19,09,19,6.00
2011,04,19,09,20,5.90
2011,04,19,09,21,5.90
2011,04,19,09,22,5.80
2011,04,19,09,23,5.80
2011,04,19,09,24,5.80
2011,04,19,09,25,5.80
2011,04,19,09,26,5.70
2011,04,19,09,27,5.70
2011,04,19,09,28,5.70
2011,04,19,09,29,5.70
2011,04,19,09,30,5.70
2011,04,19,09,31,5.70
2011,04,19,09,32,5.70
2011,04,19,09,33,5.70
2011,04,19,09,34,5.70
2011,04,19,09,35,5.80
2011,04,19,09,36,5.90
2011,04,19,09,37,6.00
2011,04,19,09,38,6.00
2011,04,19,09,39,6.10
2011,04,19,09,40,6.20
2011,04,19,09,41,6.30
2011,04,19,09,42,6.40
2011,04,19,09,43,6.60
2011,04,19,09,44,6.70
2011,04,19,09,45,6.90
2011,04,19,09,46,7.00
2011,04,19,09,47,7.20
2011,04,19,09,48,7.30
2011,04,19,09,49,7.40
2011,04,19,09,50,7.50
2011,04,19,09,51,7.60
2011,04,19,09,52,7.70
2011,04,19,09,53,7.80
2011,04,19,09,54,7.80
2011,04,19,09,55,7.80
2011,04,19,09,56,7.80
2011,04,19,09,57,7.80
2011,04,19,09,58,7.80
2011,04,19,09,59,7.80
2011,04,19,10,00,7.80
2011,04,19,10,01,7.70
2011,04,19,10,02,7.70
2011,04,19,10,03,7.60
2011,04,19,10,04,7.60
2011,04,19,10,05,7.50
2011,04,19,10,06,7.50
2011,04,19,10,07,7.40
2011,04,19,10,08,7.40
2011,04,19,10,09,7.30
2011,04,19,10,10,7.30
2011,04,19,10,11,7.30
2011,04,19,10,12,7.20
2011,04,19,10,13,7.20
2011,04,19,10,14,7.20
2011,04,19,10,15,7.20
2011,04,19,10,16,7.20
2011,04,19,10,17,7.20
2011,04,19,10,18,7.20
2011,04,19,10,19,7.10
2011,04,19,10,20,7.10
2011,04,19,10,21,7.00
2011,04,19,10,22,7.10
2011,04,19,10,23,7.10
2011,04,19,10,24,7.10
2011,04,19,10,25,7.00
2011,04,19,10,26,7.00
2011,04,19,10,27,7.00
2011,04,19,10,28,7.10
2011,04,19,10,29,7.10
2011,04,19,10,30,7.10
2011,04,19,10,31,7.20
2011,04,19,10,32,7.30
2011,04,19,10,33,7.30
2011,04,19,10,34,7.40
2011,04,19,10,35,7.50
2011,04,19,10,36,7.60
2011,04,19,10,37,7.70
2011,04,19,10,38,7.80
2011,04,19,10,39,7.90
2011,04,19,10,40,8.00
2011,04,19,10,41,8.10
2011,04,19,10,42,8.10
2011,04,19,10,43,8.20
2011,04,19,10,44,8.30
2011,04,19,10,45,8.40
2011,04,19,10,46,8.50
2011,04,19,10,47,8.50
2011,04,19,10,48,8.60
2011,04,19,10,49,8.70
2011,04,19,10,50,8.80
2011,04,19,10,51,8.90
2011,04,19,10,52,9.00
2011,04,19,10,53,9.10
2011,04,19,10,54,9.10
2011,04,19,10,55,9.20
2011,04,19,10,56,9.30
2011,04,19,10,57,9.30
2011,04,19,10,58,9.30
2011,04,19,10,59,9.30
2011,04,19,11,00,9.20
2011,04,19,11,01,9.20
2011,04,19,11,02,9.20
2011,04,19,11,03,9.10
2011,04,19,11,04,9.10
2011,04,19,11,05,9.10
2011,04,19,11,06,9.10
2011,04,19,11,07,9.10
2011,04,19,11,08,9.20
2011,04,19,11,09,9.20
2011,04,19,11,10,9.20
2011,04,19,11,11,9.20
2011,04,19,11,12,9.20
2011,04,19,11,13,9.20
2011,04,19,11,14,9.10
2011,04,19,11,15,9.10
2011,04,19,11,16,9.10
2011,04,19,11,17,9.00
2011,04,19,11,18,9.00
2011,04,19,11,19,9.00
2011,04,19,11,20,8.90
2011,04,19,11,21,8.80
2011,04,19,11,22,8.80
2011,04,19,11,23,8.70
2011,04,19,11,24,8.70
2011,04,19,11,25,8.60
2011,04,19,11,26,8.60
2011,04,19,11,27,8.50
2011,04,19,11,28,8.50
2011,04,19,11,29,8.50
2011,04,19,11,30,8.40
2011,04,19,11,31,8.30
2011,04,19,11,32,8.30
2011,04,19,11,33,8.30
2011,04,19,11,34,8.20
2011,04,19,11,35,8.20
2011,04,19,11,36,8.20
2011,04,19,11,37,8.20
2011,04,19,11,38,8.20
2011,04,19,11,39,8.20
2011,04,19,11,40,8.20
2011,04,19,11,41,8.20
2011,04,19,11,42,8.10
2011,04,19,11,43,8.10
2011,04,19,11,44,8.10
2011,04,19,11,45,8.10
2011,04,19,11,46,8.00
2011,04,19,11,47,8.00
2011,04,19,11,48,8.00
2011,04,19,11,49,8.00
2011,04,19,11,50,7.90
2011,04,19,11,51,7.90
2011,04,19,11,52,7.80
2011,04,19,11,53,7.80
2011,04,19,11,54,7.80
2011,04,19,11,55,7.80
2011,04,19,11,56,7.80
2011,04,19,11,57,7.80
2011,04,19,11,58,7.80
2011,04,19,11,59,7.80
2011,04,19,12,00,7.70
2011,04,19,12,01,7.70
2011,04,19,12,02,7.70
2011,04,19,12,03,7.60
2011,04,19,12,04,7.60
2011,04,19,12,05,7.60
2011,04,19,12,06,7.60
2011,04,19,12,07,7.60
2011,04,19,12,08,7.50
2011,04,19,12,09,7.50
2011,04,19,12,10,7.50
2011,04,19,12,11,7.60
2011,04,19,12,12,7.60
2011,04,19,12,13,7.70
2011,04,19,12,14,7.70
2011,04,19,12,15,7.80
2011,04,19,12,16,7.80
2011,04,19,12,17,7.80
2011,04,19,12,18,7.80
2011,04,19,12,19,7.90
2011,04,19,12,20,7.90
2011,04,19,12,21,8.00
2011,04,19,12,22,8.00
2011,04,19,12,23,8.00
2011,04,19,12,24,8.00
2011,04,19,12,25,8.00
2011,04,19,12,26,8.00
2011,04,19,12,27,8.00
2011,04,19,12,28,8.00
2011,04,19,12,29,8.00
2011,04,19,12,30,7.90
2011,04,19,12,31,7.90
2011,04,19,12,32,7.90
2011,04,19,12,33,7.80
2011,04,19,12,34,7.80
2011,04,19,12,35,7.80
2011,04,19,12,36,7.80
2011,04,19,12,37,7.80
2011,04,19,12,38,7.80
2011,04,19,12,39,7.70
2011,04,19,12,40,7.70
2011,04,19,12,41,7.70
2011,04,19,12,42,7.60
2011,04,19,12,43,7.60
2011,04,19,12,44,7.50
2011,04,19,12,45,7.50
2011,04,19,12,46,7.40
2011,04,19,12,47,7.40
2011,04,19,12,48,7.40
2011,04,19,12,49,7.30
2011,04,19,12,50,7.30
2011,04,19,12,51,7.30
2011,04,19,12,52,7.30
2011,04,19,12,53,7.30
2011,04,19,12,54,7.30
2011,04,19,12,55,7.30
2011,04,19,12,56,7.30
2011,04,19,12,57,7.30
2011,04,19,12,58,7.30
2011,04,19,12,59,7.30
2011,04,19,13,00,7.30
2011,04,19,13,01,7.40
2011,04,19,13,02,7.40
2011,04,19,13,03,7.40
2011,04,19,13,04,7.40
2011,04,19,13,05,7.40
2011,04,19,13,06,7.40
2011,04,19,13,07,7.50
2011,04,19,13,08,7.50
2011,04,19,13,09,7.50
2011,04,19,13,10,7.40
2011,04,19,13,11,7.40
2011,04,19,13,12,7.40
2011,04,19,13,13,7.40
2011,04,19,13,14,7.50
2011,04,19,13,15,7.50
2011,04,19,13,16,7.50
2011,04,19,13,17,7.40
2011,04,19,13,18,7.40
2011,04,19,13,19,7.40
2011,04,19,13,20,7.40
2011,04,19,13,21,7.40
2011,04,19,13,22,7.40
2011,04,19,13,23,7.30
2011,04,19,13,24,7.30
2011,04,19,13,25,7.30
2011,04,19,13,26,7.30
2011,04,19,13,27,7.30
2011,04,19,13,28,7.30
2011,04,19,13,29,7.30
2011,04,19,13,30,7.30
2011,04,19,13,31,7.30
2011,04,19,13,32,7.30
2011,04,19,13,33,7.30
2011,04,19,13,34,7.30
2011,04,19,13,35,7.30
2011,04,19,13,36,7.30
2011,04,19,13,37,7.30
2011,04,19,13,38,7.30
2011,04,19,13,39,7.30
2011,04,19,13,40,7.30
2011,04,19,13,41,7.30
2011,04,19,13,42,7.30
2011,04,19,13,43,7.20
2011,04,19,13,44,7.20
2011,04,19,13,45,7.20
2011,04,19,13,46,7.30
2011,04,19,13,47,7.30
2011,04,19,13,48,7.20
2011,04,19,13,49,7.20
2011,04,19,13,50,7.20
2011,04,19,13,51,7.20
2011,04,19,13,52,7.20
2011,04,19,13,53,7.20
2011,04,19,13,54,7.20
2011,04,19,13,55,7.20
2011,04,19,13,56,7.30
2011,04,19,13,57,7.30
2011,04,19,13,58,7.30
2011,04,19,13,59,7.30
2011,04,19,14,00,7.30
2011,04,19,14,01,7.30
2011,04,19,14,02,7.30
2011,04,19,14,03,7.30
2011,04,19,14,04,7.30
2011,04,19,14,05,7.30
2011,04,19,14,06,7.40
2011,04,19,14,07,7.40
2011,04,19,14,08,7.50
2011,04,19,14,09,7.50
2011,04,19,14,10,7.60
2011,04,19,14,11,7.60
2011,04,19,14,12,7.70
2011,04,19,14,13,7.80
2011,04,19,14,14,7.80
2011,04,19,14,15,7.80
2011,04,19,14,16,7.80
2011,04,19,14,17,7.90
2011,04,19,14,18,8.00
2011,04,19,14,19,8.10
2011,04,19,14,20,8.20
2011,04,19,14,21,8.20
2011,04,19,14,22,8.40
2011,04,19,14,23,8.50
2011,04,19,14,24,8.60
2011,04,19,14,25,8.70
2011,04,19,14,26,8.90
2011,04,19,14,27,8.90
2011,04,19,14,28,9.00
2011,04,19,14,29,9.10
2011,04,19,14,30,9.20
2011,04,19,14,31,9.40
2011,04,19,14,32,9.50
2011,04,19,14,33,9.60
2011,04,19,14,34,9.70
2011,04,19,14,35,9.70
2011,04,19,14,36,9.80
2011,04,19,14,37,9.80
2011,04,19,14,38,9.80
2011,04,19,14,39,9.80
2011,04,19,14,40,9.80
2011,04,19,14,41,9.80
2011,04,19,14,42,9.80
2011,04,19,14,43,9.70
2011,04,19,14,44,9.70
2011,04,19,14,45,9.70
2011,04,19,14,46,9.70
2011,04,19,14,47,9.70
2011,04,19,14,48,9.70
2011,04,19,14,49,9.70
2011,04,19,14,50,9.70
2011,04,19,14,51,9.70
2011,04,19,14,52,9.70
2011,04,19,14,53,9.70
2011,04,19,14,54,9.70
2011,04,19,14,55,9.70
2011,04,19,14,56,9.70
2011,04,19,14,57,9.70
2011,04,19,14,58,9.70
2011,04,19,14,59,9.90
2011,04,19,15,00,9.90
2011,04,19,15,01,10.00
2011,04,19,15,02,10.10
2011,04,19,15,03,10.00
2011,04,19,15,04,9.90
2011,04,19,15,05,10.00
2011,04,19,15,06,10.00
2011,04,19,15,07,10.10
2011,04,19,15,08,10.10
2011,04,19,15,09,10.10
2011,04,19,15,10,10.20
2011,04,19,15,11,10.20
2011,04,19,15,12,10.30
2011,04,19,15,13,10.40
2011,04,19,15,14,10.60
2011,04,19,15,15,10.70
2011,04,19,15,16,10.80
2011,04,19,15,17,10.90
2011,04,19,15,18,10.90
2011,04,19,15,19,10.90
2011,04,19,15,20,10.90
2011,04,19,15,21,10.90
2011,04,19,15,22,10.90
2011,04,19,15,23,10.90
2011,04,19,15,24,10.90
2011,04,19,15,25,10.90
2011,04,19,15,26,10.90
2011,04,19,15,27,10.90
2011,04,19,15,28,11.00
2011,04,19,15,29,11.00
2011,04,19,15,30,10.90
2011,04,19,15,31,10.90
2011,04,19,15,32,10.90
2011,04,19,15,33,10.90
2011,04,19,15,34,10.80
2011,04,19,15,35,10.90
2011,04,19,15,36,10.90
2011,04,19,15,37,10.90
2011,04,19,15,38,10.90
2011,04,19,15,39,11.00
2011,04,19,15,40,11.10
2011,04,19,15,41,11.10
2011,04,19,15,42,11.00
2011,04,19,15,43,10.90
2011,04,19,15,44,10.90
2011,04,19,15,45,11.10
2011,04,19,15,46,11.10
2011,04,19,15,47,11.10
2011,04,19,15,48,11.10
2011,04,19,15,49,11.10
2011,04,19,15,50,11.10
2011,04,19,15,51,11.10
2011,04,19,15,52,11.10
2011,04,19,15,53,11.10
2011,04,19,15,54,11.10
2011,04,19,15,55,10.90
2011,04,19,15,56,10.90
2011,04,19,15,57,10.90
2011,04,19,15,58,10.90
2011,04,19,15,59,10.90
2011,04,19,16,00,10.90
2011,04,19,16,01,10.90
2011,04,19,16,02,10.80
2011,04,19,16,03,10.70
2011,04,19,16,04,10.70
2011,04,19,16,05,10.60
2011,04,19,16,06,10.60
2011,04,19,16,07,10.60
2011,04,19,16,08,10.60
2011,04,19,16,09,10.60
2011,04,19,16,10,10.60
2011,04,19,16,11,10.60
2011,04,19,16,12,10.60
2011,04,19,16,13,10.50
2011,04,19,16,14,10.50
2011,04,19,16,15,10.60
2011,04,19,16,16,10.60
2011,04,19,16,17,10.60
2011,04,19,16,18,10.60
2011,04,19,16,19,10.60
2011,04,19,16,20,10.60
2011,04,19,16,21,10.60
2011,04,19,16,22,10.60
2011,04,19,16,23,10.60
2011,04,19,16,24,10.60
2011,04,19,16,25,10.60
2011,04,19,16,26,10.60
2011,04,19,16,27,10.60
2011,04,19,16,28,10.60
2011,04,19,16,29,10.50
2011,04,19,16,30,10.40
2011,04,19,16,31,10.40
2011,04,19,16,32,10.30
2011,04,19,16,33,10.30
2011,04,19,16,34,10.30
2011,04,19,16,35,10.20
2011,04,19,16,36,10.20
2011,04,19,16,37,10.10
2011,04,19,16,38,10.10
2011,04,19,16,39,10.10
2011,04,19,16,40,10.10
2011,04,19,16,41,10.10
2011,04,19,16,42,10.10
2011,04,19,16,43,10.10
2011,04,19,16,44,10.10
2011,04,19,16,45,10.10
2011,04,19,16,46,10.10
2011,04,19,16,47,10.10
2011,04,19,16,48,10.00
2011,04,19,16,49,9.90
2011,04,19,16,50,9.80
2011,04,19,16,51,9.70
2011,04,19,16,52,9.70
2011,04,19,16,53,9.70
2011,04,19,16,54,9.60
2011,04,19,16,55,9.50
2011,04,19,16,56,9.50
2011,04,19,16,57,9.40
2011,04,19,16,58,9.30
2011,04,19,16,59,9.20
2011,04,19,17,00,9.20
2011,04,19,17,01,9.10
2011,04,19,17,02,9.10
2011,04,19,17,03,9.10
2011,04,19,17,04,9.10
2011,04,19,17,05,9.10
2011,04,19,17,06,9.10
2011,04,19,17,07,9.00
2011,04,19,17,08,9.00
2011,04,19,17,09,8.90
2011,04,19,17,10,8.90
2011,04,19,17,11,8.80
2011,04,19,17,12,8.80
2011,04,19,17,13,8.70
2011,04,19,17,14,8.70
2011,04,19,17,15,8.70
2011,04,19,17,16,8.70
2011,04,19,17,17,8.70
2011,04,19,17,18,8.70
2011,04,19,17,19,8.70
2011,04,19,17,20,8.70
2011,04,19,17,21,8.70
2011,04,19,17,22,8.70
2011,04,19,17,23,8.70
2011,04,19,17,24,8.70
2011,04,19,17,25,8.70
2011,04,19,17,26,8.70
2011,04,19,17,27,8.70
2011,04,19,17,28,8.60
2011,04,19,17,29,8.60
2011,04,19,17,30,8.60
2011,04,19,17,31,8.60
2011,04,19,17,32,8.60
2011,04,19,17,33,8.60
2011,04,19,17,34,8.60
2011,04,19,17,35,8.60
2011,04,19,17,36,8.60
2011,04,19,17,37,8.60
2011,04,19,17,38,8.50
2011,04,19,17,39,8.50
2011,04,19,17,40,8.50
2011,04,19,17,41,8.50
2011,04,19,17,42,8.40
2011,04,19,17,43,8.40
2011,04,19,17,44,8.40
2011,04,19,17,45,8.40
2011,04,19,17,46,8.30
2011,04,19,17,47,8.30
2011,04,19,17,48,8.30
2011,04,19,17,49,8.20
2011,04,19,17,50,8.20
2011,04,19,17,51,8.20
2011,04,19,17,52,8.20
2011,04,19,17,53,8.20
2011,04,19,17,54,8.10
2011,04,19,17,55,8.10
2011,04,19,17,56,8.10
2011,04,19,17,57,8.10
2011,04,19,17,58,8.10
2011,04,19,17,59,8.10
2011,04,19,18,00,8.10
2011,04,19,18,01,8.10